User: anonymous
Location: Fort Wayne
(41.1310°N, 85.1290°W)
Time: 18:18:32
(UTC-04:00)
Language:

Oscar 19 - Orbit

View from above orbital plane
View from above orbital plane
View from above satellite
View from above satellite

Ground track
Ground track

The orbit data is extracted from the following two-line orbital elements,

1 20442U 90005G   14265.36862586  .00000121  00000-0  60517-4 0   648
2 20442 098.4839 201.2607 0011253 215.6708 144.3725 14.32589270288593
Epoch (UTC): 22 September 2014 08:50:49
Eccentricity: 0.0011253
inclination: 98.4839°
perigee height: 775 km
apogee height: 791 km
right ascension of ascending node: 201.2607°
argument of perigee: 215.6708°
revolutions per day: 14.32589270
mean anomaly at epoch: 144.3725°
orbit number at epoch: 28859

The dashed part of the orbit path shows where the satellite is in the earth's shadow,  

DLR